Location: Gloden
(48.4833°N, 15.3167°E)
Time: 10:29:07
(UTC+00:00)

Cosmos 2195 Rocket - Pass Details

Date: 15 December 2019
Orbit: 949 x 993 km, 82.9° (Epoch: 23 January)

Event Time Altitude Azimuth Distance (km) Brightness Sun altitude
Exits shadow 03:35:30 60° 0° (N) 1,129 4.7 -29.9°
Maximum altitude 03:36:46 85° 80° (E) 1,002 4.4 -29.7°
Drops below altitude 10° 03:43:05 10° 171° (S) 2,737 7.0 -28.7°
Sets 03:45:34 0° 172° (S) 3,676 7.7 -28.3°
